User: anonymous   Login
Location: Sungai Laei
(2.6000°N, 113.7167°E)
Time: 08:23:25
(UTC+00:00)
Language:

Cosmos 2263 - Orbit

View from above orbital plane
View from above orbital plane
View from above satellite
View from above satellite

Ground track
Ground track

The orbit data is extracted from the following two-line orbital elements,

1 22802U 93059A   22228.64082048  .00000370  00000-0  22263-3 0  9996
2 22802  70.9291 317.0546 0024962 277.1423  82.6860 14.13255298491429
Epoch (UTC): 16 August 2022 15:22:46
Eccentricity: 0.0024962
inclination: 70.9291°
perigee height: 830 km
apogee height: 866 km
right ascension of ascending node: 317.0546°
argument of perigee: 277.1423°
revolutions per day: 14.13255298
mean anomaly at epoch: 82.6860°
orbit number at epoch: 49142

The dashed part of the orbit path shows where the satellite is in the earth's shadow,  

DLR